• Processing (Info)

  • MPEC 2014-N41 : 2014 NA39

    The following Minor Planet Electronic Circular may be linked-to from your own Web pages, but must not otherwise be redistributed electronically.

    A form allowing access to any MPEC is at the bottom of this page.


    Read MPEC 2014-N40 Read MPEC 2014-N42


    M.P.E.C. 2014-N41                                Issued 2014 July 6, 19:44 UT
    
         The Minor Planet Electronic Circulars contain information on unusual
             minor planets and routine data on comets.  They are published
       on behalf of Commission 20 of the International Astronomical Union by the
              Minor Planet Center, Smithsonian Astrophysical Observatory,
                              Cambridge, MA 02138, U.S.A.
    
                 Prepared using the Tamkin Foundation Computer Network
    
                                  MPC@CFA.HARVARD.EDU
                URL https://www.minorplanetcenter.net/    ISSN 1523-6714
    
                                       2014 NA39
    
    Observations:
         K14N39A* C2014 07 03.50218 21 21 50.556+06 36 24.33         21.3 wLEN041F51
         K14N39A  C2014 07 03.52698 21 21 49.539+06 32 02.63         21.6 wLEN041F51
         K14N39A  C2014 07 03.53950 21 21 49.093+06 29 50.75         20.7 wLEN041F51
         K14N39A KC2014 07 04.31113221 21 43.32 +04 12 51.5          21.4 VuEN041H21
         K14N39A KC2014 07 04.32252421 21 42.91 +04 10 50.4          21.2 VuEN041H21
         K14N39A KC2014 07 04.32945521 21 42.67 +04 09 36.2          21.6 VuEN041H21
         K14N39A KC2014 07 06.67253 21 21 06.89 -02 43 33.2          21.4 RtEN041474
         K14N39A KC2014 07 06.67492 21 21 06.87 -02 43 59.1          21.3 RtEN041474
         K14N39A KC2014 07 06.67732 21 21 06.84 -02 44 24.5          20.7 RtEN041474
         K14N39A KC2014 07 06.67971 21 21 06.73 -02 44 49.5          21.2 RtEN041474
    
    Observer details:
    474 Mount John Observatory, Lake Tekapo.  Observers A. C. Gilmore,
        P. M. Kilmartin.  Measurer P. M. Kilmartin.  1.0-m f/7.7 reflector + CCD.
    F51 Pan-STARRS 1, Haleakala.  Observers N. Primak, A. Schultz, T. Goggia,
        M. Willman.  1.8-m Ritchey-Chretien + CCD.
    H21 Astronomical Research Observatory, Westfield.  Observer R. Holmes.
        Measurers S. Foglia, L. Buzzi, T. Linder, T. Lister, T. Vorobjov.  0.81-m
        f/4.0 astrograph + CCD.
    
    Orbital elements:
    2014 NA39                                                Earth MOID = 0.0934 AU
    Epoch 2014 May 23.0 TT = JDT 2456800.5                  MPC
    M  10.36403              (2000.0)            P               Q
    n   0.62549402     Peri.  111.37285     -0.68064748     +0.66641000
    a   1.3541100      Node   111.87161     -0.73245149     -0.62767750
    e   0.2800272      Incl.   19.14345     +0.01529117     -0.40239117
    P   1.58           H   24.0           G   0.15           U   9
    Residuals in seconds of arc
    140703 F51 (2.0+  1.3-)   140704 H21  0.1-  0.2+    140706 474  0.8+  0.3-
    140703 F51  0.1-  0.4-    140704 H21  0.2-  0.3-    140706 474  0.6+  0.1-
    140703 F51  0.0   0.4+    140706 474  1.3-  0.5+
    140704 H21  0.4+  0.1+    140706 474  0.2-  0.2-
    
    Ephemeris:
    2014 NA39                a,e,i = 1.35, 0.28, 19                  q = 0.9749
    Date    TT    R. A. (2000) Decl.     Delta      r     Elong.  Phase     V
    2014 06 06    21 03 59.8 +58 30 39   0.2013  1.0139    84.1    84.5    23.5
    ...
    2014 06 21    21 18 18.5 +37 55 19   0.1449  1.0573   102.6    69.7    22.4
    ...
    2014 06 29    21 21 41.3 +19 23 54   0.1251  1.0851   120.3    54.0    21.6
    ...
    2014 07 05    21 21 34.5 +02 11 29   0.1211  1.1076   136.5    39.2    21.2
    2014 07 06    21 21 19.9 -00 45 42   0.1216  1.1115   139.1    36.8    21.1
    2014 07 07    21 21 01.6 -03 41 38   0.1224  1.1153   141.7    34.4    21.1
    ...
    2014 07 13    21 17 56.0 -19 59 55   0.1345  1.1392   154.3    22.8    21.0
    ...
    2014 07 21    21 10 52.9 -36 03 46   0.1665  1.1723   158.1    18.8    21.4
    ...
    2014 08 05    20 54 21.0 -50 39 04   0.2564  1.2363   146.4    27.0    22.7
    
    A. U. Tomatic                (C) Copyright 2014 MPC           M.P.E.C. 2014-N41
    

    Read MPEC 2014-N40 Read MPEC 2014-N42


    MPEC number:

    Enter an MPEC number in one of the following forms:

    • 1997-B01 (the full form)
    • J97B01 (the packed version of the full form)
    • B01 (the abbreviated form)